FW1504 Weather Reports


time (UTC)temp
C
wind
direction
speed
KPH
gust
KPH
rain 1hr
cm
rain 24hr
cm
rain mn
cm
humidity
%
barometer
mb
20260507200109 21 360 1.6 6.4 0.00 0.00 0.00 41 1016.4
20260507194556 21 360 1.6 6.4 0.00 0.00 0.00 42 1016.5
20260507193055 21 360 1.6 6.4 0.00 0.00 0.00 41 1016.8
20260507191557 21 360 3.2 6.4 0.00 0.00 0.00 42 1017.0
20260507190056 21 360 1.6 6.4 0.00 0.00 0.00 43 1017.1
20260507184552 20 360 1.6 12.9 0.00 0.00 0.00 43 1017.4
20260507183047 20 360 1.6 9.7 0.00 0.00 0.00 49 1017.6
20260507181547 20 204 3.2 11.3 0.00 0.00 0.00 48 1018.2
20260507180043 20 202 3.2 4.8 0.00 0.00 0.00 44 1018.4
20260507174547 21 360 1.6 8.0 0.00 0.00 0.00 48 1018.7
20260507173039 20 360 1.6 9.7 0.00 0.00 0.00 49 1018.9
20260507171538 19 213 0.0 4.8 0.00 0.00 0.00 52 1019.3
20260507170043 19 234 3.2 11.3 0.00 0.00 0.00 47 1019.6
20260507164534 19 159 1.6 9.7 0.00 0.00 0.00 55 1019.8
20260507163034 19 360 3.2 8.0 0.00 0.00 0.00 46 1019.8
20260507161530 19 360 1.6 6.4 0.00 0.00 0.00 56 1019.9
20260507160033 19 360 3.2 8.0 0.00 0.00 0.00 53 1020.1
20260507154525 18 360 0.0 4.8 0.00 0.00 0.00 48 1020.1
20260507153022 18 173 1.6 8.0 0.00 0.00 0.00 52 1020.2
20260507151516 18 164 3.2 6.4 0.00 0.00 0.00 51 1020.7
20260507150013 18 163 1.6 9.7 0.00 0.00 0.00 51 1020.9
20260507144511 17 360 1.6 6.4 0.00 0.00 0.00 51 1020.9
20260507143008 17 157 0.0 8.0 0.00 0.00 0.00 53 1021.1
20260507141504 17 156 0.0 3.2 0.00 0.00 0.00 53 1021.2
20260507140103 16 360 0.0 1.6 0.00 0.00 0.00 58 1021.3
20260507134557 15 142 0.0 1.6 0.00 0.00 0.00 62 1021.4
20260507133055 13 360 0.0 1.6 0.00 0.00 0.00 67 1021.4
20260507131558 11 143 0.0 0.0 0.00 0.00 0.00 74 1021.3
20260507130053 10 360 0.0 0.0 0.00 0.00 0.00 79 1021.3
20260507124538 8 142 0.0 0.0 0.00 0.00 0.00 82 1021.2
20260507123034 8 142 0.0 0.0 0.00 0.00 0.00 82 1021.0
20260507121531 7 142 0.0 0.0 0.00 0.00 0.00 82 1020.8
20260507120037 7 138 0.0 0.0 0.00 0.00 0.00 81 1020.7
20260507114525 8 136 0.0 0.0 0.00 0.00 0.00 81 1020.4
20260507113024 8 124 0.0 0.0 0.00 0.00 0.00 81 1020.4
20260507111524 8 124 0.0 0.0 0.00 0.00 0.00 80 1020.3
20260507110022 8 124 0.0 0.0 0.00 0.00 0.00 80 1020.2
20260507104521 8 124 0.0 0.0 0.00 0.00 0.00 80 1020.3
20260507103020 8 124 0.0 0.0 0.00 0.00 0.00 80 1020.3
20260507101519 8 124 0.0 0.0 0.00 0.00 0.00 80 1019.9
20260507100025 8 124 0.0 0.0 0.00 0.00 0.00 79 1019.8
20260507094517 9 124 0.0 0.0 0.00 0.00 0.00 80 1019.8
20260507093017 8 124 0.0 0.0 0.00 0.00 0.00 82 1019.8
20260507091517 8 124 0.0 0.0 0.00 0.00 0.00 82 1019.4
20260507090021 8 124 0.0 0.0 0.00 0.00 0.00 82 1019.4
20260507084515 8 124 0.0 0.0 0.00 0.00 0.00 82 1019.6
20260507083013 8 124 0.0 0.0 0.00 0.00 0.00 82 1019.7
20260507081522 8 124 0.0 0.0 0.00 0.00 0.00 80 1019.6
20260507080010 8 124 0.0 0.0 0.00 0.00 0.00 80 1019.5
20260507074519 8 124 0.0 0.0 0.00 0.00 0.00 79 1019.5
20260507073006 8 124 0.0 0.0 0.00 0.00 0.00 79 1019.7
20260507071507 8 124 0.0 0.0 0.00 0.00 0.00 79 1019.7
20260507070008 9 124 0.0 0.0 0.00 0.00 0.00 78 1019.7
20260507064502 9 124 0.0 0.0 0.00 0.00 0.00 77 1020.1
20260507063100 10 124 0.0 0.0 0.00 0.00 0.00 77 1020.3
20260507061606 10 124 0.0 0.0 0.00 0.00 0.00 76 1020.3
20260507060056 10 124 0.0 0.0 0.00 0.00 0.00 75 1020.1
20260507054637 10 124 0.0 1.6 0.00 0.00 0.00 75 1020.3
20260507053054 10 124 0.0 1.6 0.00 0.00 0.00 75 1020.4
20260507051551 10 124 0.0 1.6 0.00 0.00 0.00 76 1020.1
20260507050054 10 124 0.0 0.0 0.00 0.00 0.00 77 1019.7
20260507044553 11 124 0.0 0.0 0.00 0.00 0.00 77 1019.7
20260507043046 11 124 0.0 0.0 0.00 0.00 0.00 76 1019.6
20260507041549 11 125 0.0 1.6 0.00 0.00 0.00 75 1018.5
20260507040046 11 125 0.0 0.0 0.00 0.00 0.00 74 1018.8
20260507034554 12 125 0.0 0.0 0.00 0.00 0.00 73 1019.2
20260507033045 12 125 0.0 0.0 0.00 0.00 0.00 71 1019.1
20260507031600 12 125 0.0 0.0 0.00 0.00 0.00 70 1019.0
20260507030050 13 125 0.0 1.6 0.00 0.00 0.00 68 1018.6
20260507024543 13 125 0.0 1.6 0.00 0.00 0.00 68 1018.5
20260507023038 13 125 0.0 1.6 0.00 0.00 0.00 67 1018.5
20260507021539 14 125 0.0 3.2 0.00 0.00 0.00 66 1018.3
20260507020038 14 125 0.0 3.2 0.00 0.00 0.00 64 1018.0
20260507014547 15 126 0.0 4.8 0.00 0.00 0.00 63 1017.6
20260507013037 15 132 0.0 4.8 0.00 0.00 0.00 62 1017.4
20260507011538 15 128 1.6 6.4 0.00 0.00 0.00 61 1017.4
20260507010040 16 119 0.0 6.4 0.00 0.00 0.00 60 1017.4
20260507004534 16 123 1.6 4.8 0.00 0.00 0.00 59 1017.3
20260507003035 16 117 0.0 3.2 0.00 0.00 0.00 59 1017.2
20260507001532 16 360 0.0 4.8 0.00 0.00 0.00 58 1017.0
20260507000132 16 360 3.2 8.0 0.00 0.00 0.00 57 1017.0
20260506234531 16 129 1.6 6.4 0.00 0.00 0.00 57 1016.7
20260506233033 16 128 1.6 8.0 0.00 0.00 0.00 57 1016.7
20260506231529 17 107 1.6 9.7 0.00 0.00 0.00 56 1016.6
20260506230028 16 28 1.6 11.3 0.00 0.00 0.00 58 1016.5
20260506224527 16 86 1.6 8.0 0.00 0.00 0.00 58 1016.5
20260506223026 16 35 3.2 14.5 0.00 0.00 0.00 58 1016.5
20260506221526 16 69 3.2 12.9 0.00 0.00 0.00 57 1016.3
20260506220026 17 101 3.2 14.5 0.00 0.00 0.00 56 1016.3
20260506214525 17 336 3.2 12.9 0.00 0.00 0.00 55 1016.3
20260506213024 17 216 3.2 8.0 0.00 0.00 0.00 57 1016.3
20260506211522 17 51 3.2 14.5 0.00 0.00 0.00 57 1016.3
20260506210023 17 43 4.8 14.5 0.00 0.00 0.00 55 1016.2
20260506204524 17 26 4.8 17.7 0.00 0.00 0.00 55 1016.4
20260506203021 17 15 4.8 16.1 0.00 0.00 0.00 55 1016.4
20260506201521 17 15 3.2 11.3 0.00 0.00 0.00 57 1016.5